Location: Burleson Alternative School
(32.5290°N, 97.3406°W)
Time: 08:30:46
(UTC+00:00)

Transit 2A Rocket - Pass Details

Date: 21 November 2024
Orbit: 586 x 903 km, 66.7° (Epoch: 06 December)

Event Time Altitude Azimuth Distance (km) Brightness Sun altitude
Rises 12:05:26 0° 178° (S) 3,495 8.7 -12.6°
Reaches altitude 10° 12:08:12 10° 168° (SSE) 2,570 8.1 -12.1°
Maximum altitude 12:13:24 31° 108° (ESE) 1,524 7.4 -11.0°
Drops below altitude 10° 12:18:32 10° 48° (NE) 2,543 8.1 -10.0°
Sets 12:21:15 0° 39° (NE) 3,454 8.7 -9.5°
